Hors Challenge

La ronde des Binômes de neige à Dergneau (5.00 km)

vendredi 15 décembre 2017

Le classement original se trouve sur : http://ultratiming.be/
 
LA RONDE DES BINÔMES DE NEIGE - DERGNEAU
DISTANCE : 4.97 km
vendredi 15 décembre 2017
 
Place dos Binôme Catégorie Pl/cat Temps temps/km Vitesse
1 788 COUNOY DELCOURTE HUGO LAURIAN HOMME 1 00:20:01 04:02 14.90
2 1213 LABEAU LABEAU STEPHANE VALENTIN HOMME 2 00:20:14 04:04 14.74
3 1197 VIGNOBLE BOTTEQUIN THOMAS TÉRENCE HOMME 3 00:20:54 04:12 14.27
4 839 DEJARDIN DAYE VIRGINIE STÉPHANE-CÉSAR MIXTE 1 00:21:09 04:15 14.10
5 1055 MAHIEZ BONDEL DAVID MICHAËL HOMME 4 00:21:41 04:22 13.75
6 709 ANDRIES GAILLARD JULES JULIEN HOMME 5 00:23:36 04:45 12.64
7 888 DEPOORTERE DEPOORTERE VINCENT MAXENCE HOMME 6 00:24:04 04:50 12.39
8 412 VANASSCHE VANASSCHE JÉRÔME ARNAUD HOMME 7 00:24:32 04:56 12.16
9 1089 PARENT GODART SABINE LÉON MIXTE 2 00:24:41 04:58 12.08
10 782 COONAERT DEWULF AIDEN FLOR MIXTE 3 00:25:00 05:02 11.93
11 776 COLMANT OLBRECHT CÉDRIC NISSIM HOMME 8 00:25:00 05:02 11.93
12 1070 MESSIAEN DESCLÉE EMELINE LOUISE DAME 1 00:25:16 05:05 11.80
13 1290 MESSIAN DEREUX BENJAMIN BENJAMIN HOMME 9 00:25:17 05:05 11.80
14 1271 XXX XXX   00:25:27 05:07 11.72
15 1270 XXX XXX   00:25:27 05:07 11.72
16 1028 LECOMTE LUMEN JULIE ZOÉ DAME 2 00:25:49 05:12 11.55
17 1135 SONCK SONCK JOSEF JEFF HOMME 10 00:25:56 05:13 11.50
18 931 DUBRUILLE ROBIEZ MAXENCE LOÏC HOMME 11 00:26:10 05:16 11.40
19 1249 FORNEM COUROYER LUDOVIC NATHAN HOMME 12 00:26:27 05:19 11.28
20 1304 VERHEYDEN VARCOE BRUNO QUINN HOMME 13 00:26:30 05:20 11.25
21 919 DIRICQ DIRICQ HÉLOÏSE NOLWEEN DAME 3 00:26:39 05:22 11.19
22 921 DIRICQ DIRICQ PASCAL GWENAËLLE MIXTE 4 00:27:27 05:31 10.87
23 886 DEPIERRE D'HOEST ROMAIN MATHIEU HOMME 14 00:28:03 05:39 10.63
24 835 DECOEN ROZEL HENRI SACHA HOMME 15 00:28:04 05:39 10.63
25 1253 PRAET FOCKEDEY CHARLES COLAS HOMME 16 00:28:16 05:41 10.55
26 1151 VAN ACKER FRICQ MARIE DAVID MIXTE 5 00:28:32 05:44 10.45
27 1277 DAYE CHAUVAUX FRANÇIS ALEXANDRE HOMME 17 00:28:33 05:45 10.45
28 1350 PESSEMIER D'ERRETHEIES JULIEN COX HOMME 18 00:28:51 05:48 10.34
29 1260 RENNEQUIN DECLERCQ SACHA MARION MIXTE 6 00:28:53 05:49 10.33
30 916 DIRICQ DIRICQ YANIS YAËLLE MIXTE 7 00:29:00 05:50 10.28
31 903 DESMETS DESMETS BERNARD ELODIE MIXTE 8 00:29:03 05:51 10.27
32 749 CARBON CARBON JEAN-CHRISTOPHE JEAN-VINCENT HOMME 19 00:29:10 05:52 10.23
33 1129 SEMAY LEPEZ DAEVID AN MIXTE 9 00:29:22 05:54 10.16
34 912 D'HAEYER VAN HERZEELE COLINE SANDRINE DAME 4 00:29:23 05:55 10.15
35 1201 WANNEZ BONDUE DOMITILLA JULIETTE DAME 5 00:29:42 05:58 10.04
36 841 DEJONCKHEERE DECAIGNY SOPHIE CHARLOTTE DAME 6 00:30:32 06:09 9.77
37 869 DELEUZE BONDROIT CATHERINE FRÉDÉRIC MIXTE 10 00:30:45 06:11 9.70
38 10 WINCQ ANCIAUX KAREN AXELLE DAME 7 00:30:49 06:12 9.68
39 1223 VANOOSTHUYSSE MINEO LOUISE LOUISE DAME 8 00:30:49 06:12 9.68
40 929 DUBOIS LESEULTRE LENNY NOAH MIXTE 11 00:31:01 06:14 9.62
41 1017 LARCIN WAUTHY NICOLAS MATTHEW HOMME 20 00:31:04 06:15 9.60
42 884 DENOULET DEFFRENNE MARIE-ANGE COLETTE DAME 9 00:31:07 06:16 9.58
43 1075 MOULIGNEAU HASEBROEK ISABELLE SONIA DAME 10 00:31:27 06:20 9.48
44 1107 RASSENEUR MEURISSE GEOFFREY NOA HOMME 21 00:31:41 06:22 9.41
45 1302 LEJEUNE DHAEYER SIMON MELANIE MIXTE 12 00:31:42 06:23 9.41
46 863 DELDALLE WÉRION CHRISTOPHE STÉPHANE-CÉSAR HOMME 22 00:31:54 06:25 9.35
47 725 BAUDART BAUDART ALEXANDRE LOUISE MIXTE 13 00:32:02 06:27 9.31
48 905 DESMYTER DELEM LAURENCE BENOÎT MIXTE 14 00:32:07 06:28 9.29
49 1066 MATTENS WINDAL FRÉDÉRIC MAGALI MIXTE 15 00:32:08 06:28 9.28
50 1257 MICLOTTE LABEAU MURIELLE OPHELIE DAME 11 00:32:12 06:29 9.26
51 946 ERICX DEFONTAINE ELISA VIRGINIE DAME 12 00:32:32 06:33 9.17
52 1318 DURAND DESCAMPS FANNY ARNAUD MIXTE 16 00:32:41 06:35 9.13
53 1190 VAST VILETTE LAURENT MICHAEL HOMME 23 00:32:45 06:35 9.11
54 1298 VEYS PROVOST JEROME KAIL HOMME 24 00:32:48 06:36 9.09
55 1199 WALRAET VALEZ FRÉDÉRIC PATRICE HOMME 25 00:33:01 06:39 9.03
56 1121 SALOME DE RUYVER AURÉLIE LESLIE DAME 13 00:33:02 06:39 9.03
57 812 DE TANDT GILLET AUDREY CÉLINE DAME 14 00:33:04 06:39 9.02
58 1009 HUGE MEYNSBRUGHEN LAURA PHILIPPE MIXTE 17 00:33:05 06:39 9.02
59 1275 VANHAETSDAELE JONNAERT FRANÇOIS AUDREY MIXTE 18 00:33:08 06:40 9.00
60 843 DEJONCKHEERE BRAQUENIER JULIE JEANNE DAME 15 00:33:11 06:41 8.99
61 713 AUBERT DEJONGHE ALIX THAÏS DAME 16 00:33:11 06:41 8.99
62 1219 STOCKMAN VANDERKERKEN ANOUCHKA AMANDINE DAME 17 00:33:13 06:41 8.98
63 1103 QUICK BOITTE MARIE SABINE DAME 18 00:33:38 06:46 8.87
64 1205 WILSSENS VERHELST JULIE LOLA DAME 19 00:33:40 06:46 8.86
65 1148 TITECA DAPPREMÉE CÉDRIC QUENTIN HOMME 26 00:33:41 06:47 8.85
66 867 DELESTRAIT DEPREZ NOÉMIE HUGO MIXTE 19 00:33:52 06:49 8.81
67 1244 DURAND OLIVIER ALEXANDRE ANTOINE HOMME 27 00:34:12 06:53 8.72
68 1264 VAN CALSTER DRUART YLANA ZOE DAME 20 00:34:18 06:54 8.70
69 810 DE RIEMAECKER VANDENBOSSCHE SANDRINE MURIELLE DAME 21 00:34:18 06:54 8.70
70 1052 MAES ALLAERT AURORE CORALINE DAME 22 00:34:27 06:56 8.66
71 1044 LIMME LIMME LUCIE VIRGINIE DAME 23 00:34:31 06:57 8.64
72 733 BEKERS GORTS NOËL JEAN-LUC HOMME 28 00:34:38 06:58 8.61
73 1042 LIMME LIMME BENOÎT MARIE MIXTE 20 00:34:39 06:58 8.61
74 1209 YUEN BONNAMI DANNY CHRISTINE DAME 24 00:34:39 06:58 8.61
75 754 CARDON DUBUISSON AUDRY JULIE MIXTE 21 00:34:39 06:58 8.61
76 1207 WOUTERS SAFFRE CAROLINE ALISON DAME 25 00:34:42 06:59 8.60
77 1123 SANTGERMA DELAUNOY TIPHAINE JUSTINE DAME 26 00:34:43 06:59 8.59
78 1250 PRAET SCOHIEZ LOUISE MELANIE DAME 27 00:34:53 07:01 8.55
79 1386 MAES DE BITTOEZ GEOFFREY QUENTIN HOMME 29 00:34:55 07:01 8.54
80 1188 VANZEVEREN LOWAGIE EMMA LÉA DAME 28 00:35:00 07:02 8.52
81 1391 COMEZ SPRIET LUTGARDE SULYVAN HOMME 30 00:35:06 07:04 8.50
82 1255 PRIRET PRAET PHILIPPE JULES HOMME 31 00:35:06 07:04 8.50
83 1131 SEMAY DECLERCQ AMÉLIE MANON DAME 29 00:35:10 07:04 8.48
84 1015 KRIKILION DARDENNE DOMINIQUE THIERRY HOMME 32 00:35:13 07:05 8.47
85 1300 DECOEN LEDOUX LEONIE MAEVA DAME 30 00:35:13 07:05 8.47
86 1047 LUMEN LUMEN EMMANUEL QUENTIN HOMME 33 00:35:19 07:06 8.44
87 720 BALAND BALAND JOHAN MARINE MIXTE 22 00:35:29 07:08 8.41
88 707 ANDRIES HAINAUT DIDIER CHARLOTTE MIXTE 23 00:35:41 07:11 8.36
89 1101 PROVINS HEREMANS CAROLINE CHANTAL DAME 31 00:35:45 07:12 8.34
90 774 COLLE FRANÇOIS PATRICK LAURENCE MIXTE 24 00:35:50 07:13 8.32
91 955 FLAMME DUBOIS SOLÉNA RIHLEY MIXTE 25 00:35:51 07:13 8.32
92 1011 JUCHTMANS THAON GAËLLE MICHELLE DAME 32 00:36:05 07:16 8.27
93 973 GEETS GLORIEUX ROMAIN THOMAS HOMME 34 00:36:08 07:16 8.25
94 909 DEVROEY VAN DORPE VANESSA MARTHE DAME 33 00:36:17 07:18 8.22
95 790 COURSEZ DESCAMPS FABIAN THIERRY HOMME 35 00:36:17 07:18 8.22
96 705 ANCISSE KIMPE MARC CHRISTOPHE HOMME 36 00:36:28 07:20 8.18
97 703 AMORISON TORTORA DAVID BENOÎT HOMME 37 00:36:28 07:20 8.18
98 1093 PAUWELS VAN VARENBERGH SANDRINE LAURENCE DAME 34 00:36:33 07:21 8.16
99 991 GUSTIN LEMOINE LYNN SÉVERINE DAME 35 00:36:35 07:22 8.15
100 1030 LEDENT DESMETTE VALENTINE ELISE DAME 36 00:36:51 07:25 8.09
101 882 DEMSETS LEROY PAULINE LAURIE DAME 37 00:36:53 07:25 8.09
102 861 DELCOUR RAVIART LAETITIA ALICE DAME 38 00:36:53 07:25 8.09
103 1127 SCHUDDINCK TANGHE HANS MAGALIE MIXTE 26 00:37:03 07:27 8.05
104 1105 RAIMONDI SCHUDDINCK FABRICE ARNO HOMME 38 00:37:07 07:28 8.04
105 927 DUBOIS DURIEUX PASCAL LUDIVINE MIXTE 27 00:37:08 07:28 8.03
106 14 D'ODORICO BACRO ANTOINE MAURINE MIXTE 28 00:37:09 07:28 8.03
107 15 D'ODORICO BACRO ANTOINE MAURINE MIXTE 29 00:37:09 07:28 8.03
108 766 CHOTEAU CHOTEAU LUDOVIC BASTIEN HOMME 39 00:37:11 07:29 8.02
109 1064 MASURE LAFRANCE AUDREY CASSANDRA DAME 39 00:37:15 07:30 8.01
110 1164 VANDEN BORRE VANDEN BORRE ALEXANDRE ELODIE MIXTE 30 00:37:18 07:30 8.00
111 1166 VANDENDAUL FONTAINE CHLOÉ MARJORIE DAME 40 00:37:18 07:30 8.00
112 701 ABARHOUNE DE RYCK YASMINA SYLVIE DAME 41 00:37:20 07:31 7.99
113 1380 VAN CAUWENBERGHE LIAUTAUD TOM LAURA MIXTE 31 00:37:21 07:31 7.99
114 1049 MAES BLOMMAERT DOROTHÉE ISABELLE DAME 42 00:37:25 07:32 7.97
115 1395 WADIN DECONINCK ALICE OPHELIE DAME 43 00:37:44 07:35 7.90
116 814 DE VLEESCHAUWER MARIAULE MARTINE CHRISTINE DAME 44 00:37:50 07:37 7.88
117 741 BOTTEQUIN BERNAERT LAURENT MARLÈNE MIXTE 32 00:37:54 07:37 7.87
118 1112 RASSON RASSON DOROTHÉE AMANDINE DAME 45 00:37:57 07:38 7.86
119 1068 MERCIER MERCIER MATHYS SÉBASTIEN HOMME 40 00:37:59 07:38 7.85
120 1077 MUNOZ CANELORO CONCEPCION CHRISTOPHER HOMME 41 00:38:13 07:41 7.80
121 969 FRANÇOIS CONIL VICTORIA LÉONIE DAME 46 00:38:15 07:42 7.80
122 778 CONTI VANDAELE FABIO HÉLÈNE MIXTE 33 00:38:15 07:42 7.80
123 1133 SERLIPPENS BARBAIX FRANCIS MICHEL HOMME 42 00:38:24 07:44 7.77
124 1310 DECTENRG MARLIER GUILLAUME ORELIE MIXTE 34 00:38:27 07:44 7.76
125 859 DELCOIGNE AUDOOR DIMITRI JÉRÉMY HOMME 43 00:38:47 07:48 7.69
126 1266 VANEXEM DELFOSSE CHARLOTTE NOEMIE DAME 47 00:38:53 07:49 7.67
127 799 DE BODT ROZEL AXELLE NATHAN HOMME 44 00:38:56 07:50 7.66
128 1247 TRUC LENIERE ANTOINE JENNIFER MIXTE 35 00:38:57 07:50 7.66
129 828 DECLERCQ MAHAUDENS CÉLINE MARIE-LAURE DAME 48 00:39:02 07:51 7.64
130 1186 VANYPERZEELE STÉPHANIE VANYPERZEELE VALÉRIE DAME 49 00:39:04 07:52 7.63
131 818 DEBAISIEUX QUENSIER MARIE PAULINE DAME 50 00:39:05 07:52 7.63
132 718 BAINE ANDRY TANIA VÉRONIQUE DAME 51 00:39:06 07:52 7.63
133 747 BURTON VANDENHENDE CHARLOTTE CHARLOTTE DAME 52 00:39:06 07:52 7.63
134 1232 OPSOMER MARIE XXX   00:39:08 07:52 7.62
135 1241 MALENGREAUX MALENGREAUX FABRICE FABRICE HOMME 45 00:39:11 07:53 7.61
136 837 DECONINCK REMAN VANESSA MARIE DAME 53 00:39:22 07:55 7.58
137 711 APECECHEA APECECHEA SACHA LISE MIXTE 36 00:39:28 07:56 7.56
138 1272 BEAUCHAMPS DE LATTE CLAUDE VERONIQUE MIXTE 37 00:39:31 07:57 7.55
139 914 DI EMIDIO DI EMIDIO MASSIMO TEO HOMME 46 00:39:34 07:58 7.54
140 1280 DUMORTIER LEROY GEOFFREY MARIE-COLLINE MIXTE 38 00:39:44 08:00 7.51
141 1036 LETURCQ PHILIPPART ANNE-SOPHIE FLORENCE DAME 54 00:39:50 08:01 7.49
142 957 FLAMME COLIN MATHÉO SÉLÉNA MIXTE 39 00:39:51 08:01 7.48
143 1282 GRANDJEAN OTTEN VALERIE FRANCOIS MIXTE 40 00:39:52 08:01 7.48
144 952 FLAMME BOIZET MARIE-JEANNE SIGRID DAME 55 00:39:52 08:01 7.48
145 1162 VANDAELE LOZANI ANNE YÉO MIXTE 41 00:39:55 08:02 7.47
146 735 BETTENS DEN HAERYNCK FEBE JULIE HOMME 47 00:40:03 08:03 7.45
147 1296 GOEMAERE ROGGHE ANNA GWENAELLE DAME 56 00:40:05 08:04 7.44
148 960 FLAMMIA CUVELIER JEAN-BAPTISTE AURÉLIE MIXTE 42 00:40:09 08:05 7.43
149 1286 FERRANT VANOPPENS GAETANE OLIVIA DAME 57 00:40:25 08:08 7.38
150 1168 VANDENNIEUWENBROECK LIENARD SOPHIE ANNE-FRANCE DAME 58 00:40:31 08:09 7.36
151 797 DAUBY RUSTIN PIERRE HÉLÈNE MIXTE 43 00:40:32 08:09 7.36
152 977 GHISLAIN DEPELCHIN MICHEL ISABELLE MIXTE 44 00:40:34 08:10 7.35
153 816 DEBAISIEUX SERVAIS FRANÇOIS ANNE MIXTE 45 00:40:35 08:10 7.35
154 1013 KIEDRZYNSKI HENBEST DANUTA ROSS MIXTE 46 00:40:36 08:10 7.35
155 1345 BAELE VANDAELE MARLENE ELODIE DAME 59 00:40:41 08:11 7.33
156 1097 PETIT DELBECQ RÉGIS KÉVIN HOMME 48 00:40:42 08:11 7.33
157 1217 VAN DRIESSCHE VAN DRIESSCHE ZOE HUGO MIXTE 47 00:40:42 08:11 7.33
158 987 GOSSUIN GOSSUIN YVES CYRIL HOMME 49 00:40:50 08:13 7.30
159 1139 SPILEERS MARESCAUX CINDY LOUISE DAME 60 00:40:51 08:13 7.30
160 745 BRILLON LAURENT MATHIEU SABINE MIXTE 48 00:40:57 08:14 7.28
161 1114 RENDERS RENDERS LOUISE-MARIE JULIUS MIXTE 49 00:41:12 08:17 7.24
162 942 DUQUENNOY RENDERS CINDY CHRISTOPHE MIXTE 50 00:41:16 08:18 7.23
163 856 DELBECQ MOULART EMILIE ARTHUR HOMME 50 00:41:33 08:22 7.18
164 1119 ROTSAERT ROTSAERT PIAT ELOIT HOMME 51 00:41:33 08:22 7.18
165 1184 VANNEROM LATRUWE AUDREY ANGÉLIQUE DAME 61 00:41:34 08:22 7.18
166 1141 SPILEERS COONAERT MARIE-HÉLÈNE KIAN MIXTE 51 00:41:39 08:23 7.16
167 1382 VANDER MASSEN CHAIS MARTIN ALBERT HOMME 52 00:41:47 08:24 7.14
168 1228 VERCRUYSSE VERCRUYSSE CATHY SYLVIE DAME 62 00:41:57 08:26 7.11
169 1314 GOBERT MACKELBERGHE MARTINE MAEVA MIXTE 52 00:42:04 08:28 7.09
170 1268 DESONNIAUX VANDAELE ISANNA JUELSA DAME 63 00:42:04 08:28 7.09
171 1230 MAES D'HAEYER ALEXANDRE JULES HOMME 53 00:42:06 08:28 7.08
172 944 DUSAUSOIT BECQUET EDDY JEAN-MARC HOMME 54 00:42:11 08:29 7.07
173 940 DUPONCHEEL DE BODT NATHALIE DIDIER MIXTE 53 00:42:15 08:30 7.06
174 824 DEBODE BATAILLE SOPHIE HÉLÉNA DAME 64 00:42:16 08:30 7.06
175 1180 VANDEWYNCKEL VANDENBORRE OLIVIER MATHIEU HOMME 55 00:42:24 08:32 7.03
176 1308 VERHEBT BEMECER MICHAEL PIETER HOMME 56 00:42:26 08:32 7.03
177 938 DULON PROCUREUR RAPHAËL DAVID HOMME 57 00:42:27 08:32 7.03
178 1397 VENQUIER DUTHAIT JULIE AMELIE DAME 65 00:42:43 08:36 6.98
179 826 DEBROULE EVRARD RITA CAROLINE DAME 66 00:42:44 08:36 6.98
180 1026 LECOCQ CRÉTEUR ANNE CHRISTELLE DAME 67 00:42:48 08:37 6.97
181 801 DE GEYTER PELDERS JUSTINE OPHÉLIE DAME 68 00:42:54 08:38 6.95
182 1038 LIEFOOGHE HARCHIES CINDY THIBAUT MIXTE 54 00:43:07 08:40 6.92
183 1347 GHESQUIERE MASIT MICHAEL BARBARA MIXTE 55 00:43:15 08:42 6.90
184 1073 MISSANTE RIJCKAERT STÉPHANE ALAIN HOMME 58 00:43:19 08:43 6.89
185 737 BLOCQUEAU BLOCQUEAU MICHEL ANNE MIXTE 56 00:43:21 08:43 6.88
186 1172 VANDERWILT GOBIN SOPHIE GUILLAUME MIXTE 57 00:43:27 08:44 6.86
187 739 BLONDELLE LENOIR SOPHIE ROBIN MIXTE 58 00:43:36 08:46 6.84
188 845 DEKAMPENER DEKAMPENER JULIA CLAIRE DAME 69 00:43:53 08:50 6.80
189 1155 VAN DE GINSTE BOUCHER SÉBASTIEN JOHANNA MIXTE 59 00:44:29 08:57 6.70
190 1226 MINEO MINEO EMILIE THIBAULT MIXTE 60 00:44:29 08:57 6.70
191 1221 XXX XXX   00:44:31 08:57 6.70
192 1237 DE SCHUYTER CHANTAL XXX   00:44:37 08:59 6.68
193 1233 LEROY BERNARD LAURENT AGACHE BERNARD LAURENT HOMME 59 00:44:37 08:59 6.68
194 989 GOSSUIN LEBRUN LUCIE LUCIE DAME 70 00:44:39 08:59 6.68
195 731 BEAUFAYS MARTIN MIRANDA MAÏTÉ DAME 71 00:44:41 08:59 6.67
196 950 FÉVRIER ENGLEBERT ANNICK ERIC MIXTE 61 00:44:43 09:00 6.67
197 803 DE MUNCK CAILLEAU TANGUY BENJAMIN HOMME 60 00:44:44 09:00 6.67
198 793 CUVELIER RASSON GWENDOLINE AMANDINE DAME 72 00:44:47 09:01 6.66
199 727 BAUGNIES DEMITRI VALÉRIE COSIMO MIXTE 62 00:44:47 09:01 6.66
200 964 FONTAINE LEFÈBVRE CAROLE RÉGINE DAME 73 00:45:00 09:03 6.63
201 1081 NICAISE DAME NATHACHA JEAN-MARIE MIXTE 63 00:45:10 09:05 6.60
202 1222 MINEO VERAART PHILIPPE CAROLINE MIXTE 64 00:45:11 09:05 6.60
203 1292 DE TOUSSAINT TOUSSAINT MATTHIEU NORA MIXTE 65 00:45:12 09:06 6.60
204 875 DELILLE CRUCKE EMILIE JEAN-LUC MIXTE 66 00:45:12 09:06 6.60
205 1192 VERHEYE HUVENNE CLAIRE MATHILDE DAME 74 00:45:12 09:06 6.60
206 1312 PLANCQUAERT DEPINOY ALEXIS THOMAS HOMME 61 00:45:16 09:06 6.59
207 975 GÉRARD HENDRICK MATHIEU FANNY MIXTE 67 00:45:17 09:07 6.59
208 865 DELDIQUE TANGLE AUDREY LOUIS MIXTE 68 00:45:21 09:07 6.58
209 1215 HENNEGE FRANÇOIS MAXIME TEDDY HOMME 62 00:45:27 09:09 6.56
210 1095 PECQUEREAU VANCLÈS VALÉRIE BRUNO MIXTE 69 00:45:31 09:09 6.55
211 925 DUBOIS DUBOIS EMILIE ELOÏSE DAME 75 00:45:33 09:10 6.55
212 1137 SOYEZ MARYSSE PAUL NADINE MIXTE 70 00:45:34 09:10 6.55
213 808 DE RAEDT CHILOUP FANNY RAPHAËL MIXTE 71 00:45:34 09:10 6.55
214 1321 BAUDOIN KINS NATHALIE CYRIELLE DAME 76 00:45:35 09:10 6.54
215 878 DELITTE HENDRICK GOEFFROY EMILIE HOMME 63 00:45:37 09:11 6.54
216 849 DELAVALLÉE GHILBERT JOHANNA CATHERINE DAME 77 00:45:48 09:13 6.51
217 759 CARPENTIER NOËL DELPHINE FRANCE DAME 78 00:45:53 09:14 6.50
218 1177 VANDEVOORDE LIBBERECHT ELISE AURÉLIE DAME 79 00:45:57 09:15 6.49
219 1323 DEPREZ MAXENCE XXX   00:45:58 09:15 6.49
220 786 COTTON JOURQUIN CELINE PAULINE DAME 80 00:45:59 09:15 6.49
221 1159 VAN VEERDEGEM VAN DE WIELE MÉLANIE ISABELLE DAME 81 00:45:59 09:15 6.49
222 962 FONTAINE CAULIER LOUISE-MARIE MARIE-CHRISTINE DAME 82 00:46:05 09:16 6.47
223 1319 DE BILLOEZ MULLIE SOPHIE LOUISE DAME 83 00:46:06 09:16 6.47
224 715 BAELE MALRAIT LUDIVNE MARJORIE DAME 84 00:46:10 09:17 6.46
225 1060 MARESCAUX DEROOSE CAMILLE GATIEN MIXTE 72 00:46:12 09:18 6.46
226 995 HAUZEUR DELCOIGNE ERIC VIRGINIE MIXTE 73 00:46:17 09:19 6.44
227 880 DEMAN SCHIETAERT ANNE-SOPHIE VIRGINIE DAME 85 00:46:51 09:26 6.37
228 1284 TRIO SSOLS ELI JOCELYNE DAME 86 00:46:53 09:26 6.36
229 1389 DESCAMPS LEFEBVRE CAROLINE GLADYS DAME 87 00:46:57 09:27 6.35
230 1117 RISSELIN RISSELIN AXELLE EMELINE DAME 88 00:47:21 09:32 6.30
231 1040 LIEFOOGHE LOEUILLE DANY CÉLINE MIXTE 74 00:47:51 09:38 6.23
232 1175 VANDERZIELEN BOURGUELLE ISABELLE JULIE DAME 89 00:47:52 09:38 6.23
233 820 DEBILLEMONT DELVAUX COLETTE CAMILLE DAME 90 00:48:07 09:41 6.20
234 1022 LECHANTRE PIRON ERWIN GILLES HOMME 64 00:48:12 09:42 6.19
235 967 FOUCART LAMONT JESSIC ADELINE DAME 91 00:48:29 09:45 6.15
236 831 DECOBECQ DECOBECQ MICKAËL NATHAN HOMME 65 00:48:37 09:47 6.13
237 772 CLYMANS MIDULLA STÉPHANE DOMENICO HOMME 66 00:48:45 09:48 6.12
238 851 DELBAR DUCHATELET LUDOVIC XAVIER HOMME 67 00:48:47 09:49 6.11
239 1153 VAN COPPENOLLE MESSIEN LOÏC HÉLÈNE MIXTE 75 00:48:47 09:49 6.11
240 833 DECOBECQ JACQUES LAURA RÉMY MIXTE 76 00:48:57 09:51 6.09
241 1007 HUBIN BACART ESTELLE ANTOINE MIXTE 77 00:48:57 09:51 6.09
242 1393 QUEQUIN HANICQ CECILE ANNE-SOPHIE DAME 92 00:48:59 09:51 6.09
243 1157 VAN TOMME VAN TOMME BRIGITTE MARIE-CHRISTINE DAME 93 00:49:20 09:55 6.05
244 1109 RASSON LEGHAIT GÉRALDINE ISABELLE DAME 94 00:49:22 09:56 6.04
245 1079 NEYROUD NEYROUD CHRISTOPHE NOAH HOMME 68 00:49:23 09:56 6.04
246 763 CHAMBRIER DESRUMEAUX ALEXANDRE ANAÏS MIXTE 78 00:49:25 09:56 6.04
247 1294 GORTS - HORLAY WANNYN PIERROT VALERIE MIXTE 79 00:49:27 09:57 6.03
248 1235 DE MEY HUSTACHE CAROLINE FREDERIC MIXTE 80 00:49:27 09:57 6.03
249 971 GAILLY BOSSART SOPHIE LUCIE DAME 95 00:49:32 09:58 6.02
250 1125 SCHALLON MESSIAEN MARIE MONICA DAME 96 00:49:33 09:58 6.02
251 901 DESCORNEZ LEPERS RÉGINE ROGER MIXTE 81 00:49:33 09:58 6.02
252 722 BARGIBANT DECLERCQ PATRICK ANNE-SOPHIE MIXTE 82 00:49:35 09:58 6.02
253 948 FASTREZ BOONAERT VIRGINIE STÉPHANIE DAME 97 00:49:36 09:59 6.01
254 936 DUHAUT LISON AMANDINE LUDIVINE DAME 98 00:49:55 10:03 5.97
255 1019 LAURIER JOURET NICOLAS FRANÇOIS HOMME 69 00:49:55 10:03 5.97
256 1091 PARMENTIER CHAMART PHILMOÈNE MATHILDE DAME 99 00:50:04 10:04 5.96
257 871 DELHAYE SAURO HÉLÈNE RONALD MIXTE 83 00:50:18 10:07 5.93
258 757 CARELS DUSAUTOIS VALÉRIE CORANE DAME 100 00:50:34 10:10 5.90
259 1024 LECLERCQ BARBIER MARIANNE BERNARD MIXTE 84 00:51:10 10:18 5.83
260 1352 SKUSA MILLEMALI AMANDINE LOREDANA DAME 101 00:51:13 10:18 5.82
261 780 CONTRERAS MEULYSER PHILIPPE HÉLÈNE MIXTE 85 00:52:29 10:33 5.68
262 1085 NOULLEZ VANMANSART ACHILLE LÉA MIXTE 86 00:52:49 10:38 5.65
263 1083 NOULLEZ NOULLEZ JEAN-FRANÇOIS JULES HOMME 70 00:52:49 10:38 5.65
264 1273 DHEUR DELITTE MATHILDE CHARLOTTE DAME 102 00:52:58 10:39 5.63
265 982 GLORIEUX VANDERSTENNE NATHALIE DAVID MIXTE 87 00:53:02 10:40 5.62
266 1316 BELLON DEWISPELAERE AUDREY CANDICE DAME 103 00:54:10 10:54 5.51
267 1145 TARIN FONTAINE LAETITIA MARIE DAME 104 00:56:12 11:18 5.31
268 1324 DELITTE DE VUYST MATHIEU OLIVIER HOMME 71 00:56:21 11:20 5.29
269 999 HÉBRANT DE STEXHE LIONEL VIRGINIE MIXTE 88 00:58:45 11:49 5.08
270 1195 VIGNOBLE RONLEZ STÉPHANIE SOPHIE DAME 105 00:59:21 11:56 5.03
271 1143 TAFFIN ZOPPÉ VICKY DAVID MIXTE 89 00:59:24 11:57 5.02
272 873 DELHOVE VANSCHOORISSE RALPH THOMAS HOMME 72 00:59:29 11:58 5.01
273 1062 MARY VANDENBERGHE SARAH TOM MICHELLE DAME 106 1:00:34 12:11 4.92
274 1182 VANEXEM BUSE BERNARD PATRICK HOMME 73 1:02:13 12:31 4.79
275 1384 DELITTE KEVERS MANON LUCIE DAME 107 1:04:21 12:57 4.63
276 1034 LESOIN HAZARD CÉLINE NILS MIXTE 90 1:09:37 14:00 4.28
277 795 DAUBECHIES TRENTESEAUX THÉO JUSTINE MIXTE 91 1:10:28 14:11 4.23
278 1355 RONNECLAIRE MERCIER TYL NATHALIE DAME 108 1:14:35 15:00 4.00
279 822 DEBLEEKER VANNIEUWENHUYSE MURIEL ISABELLE DAME 109 1:14:35 15:00 4.00
280 1005 HUART SEYNAEVE EMILIEN LÉONIE MIXTE 92 1:17:44 15:38 3.84
281 1262 VAN CALSTER GLEISSNER HUGO MATHYS HOMME 74 1:23:24 16:47 3.58